GW3140 Weather Reports


Display with metric or nautical units.
time (UTC)temp
F
wind
direction
speed
MPH
gust
MPH
rain 1hr
in
rain 24hr
in
rain mn
in
humidity
%
barometer
mb
20260905170036 77 0 0.0 4.0 0.00 0.00 0.00 59 1016.5
20260905165518 76 41 0.0 3.0 0.00 0.00 0.00 58 1016.5
20260905165018 76 55 0.0 3.0 0.00 0.00 0.00 61 1016.5
20260905164536 75 347 0.0 3.0 0.00 0.00 0.00 60 1016.6
20260905164018 75 0 0.0 0.0 0.00 0.00 0.00 62 1016.5
20260905163515 75 0 0.0 2.0 0.00 0.00 0.00 61 1016.7
20260905163036 76 0 0.0 3.0 0.00 0.00 0.00 60 1016.7
20260905162520 76 358 0.0 3.0 0.00 0.00 0.00 59 1016.7
20260905162018 76 30 1.0 3.0 0.00 0.00 0.00 58 1016.7
20260905161537 76 41 0.0 3.0 0.00 0.00 0.00 63 1016.8
20260905161017 75 0 0.0 3.0 0.00 0.00 0.00 61 1016.8
20260905160518 75 0 1.0 4.0 0.00 0.00 0.00 61 1016.7
20260905160036 75 47 1.0 4.0 0.00 0.00 0.00 62 1016.6
20260905155517 75 33 0.0 4.0 0.00 0.00 0.00 62 1016.8
20260905155018 75 332 0.0 4.0 0.00 0.00 0.00 62 1016.8
20260905154554 75 29 0.0 5.0 0.00 0.00 0.00 59 1016.8
20260905154020 75 32 1.0 5.0 0.00 0.00 0.00 63 1016.9
20260905153522 75 15 0.0 4.0 0.00 0.00 0.00 64 1016.8
20260905153034 75 0 0.0 3.0 0.00 0.00 0.00 64 1016.7
20260905152518 74 0 0.0 4.0 0.00 0.00 0.00 64 1016.8
20260905152019 74 29 1.0 4.0 0.00 0.00 0.00 62 1016.7
20260905151537 74 339 1.0 4.0 0.00 0.00 0.00 62 1016.7
20260905151020 73 4 0.0 4.0 0.00 0.00 0.00 66 1016.6
20260905150519 73 43 1.0 4.0 0.00 0.00 0.00 62 1016.6
20260905150037 73 0 0.0 4.0 0.00 0.00 0.00 63 1016.6
20260905145518 73 0 1.0 4.0 0.00 0.00 0.00 63 1016.7
20260905145020 73 33 1.0 4.0 0.00 0.00 0.00 64 1016.6
20260905144539 73 43 1.0 5.0 0.00 0.00 0.00 62 1016.6
20260905144018 72 51 1.0 5.0 0.00 0.00 0.00 63 1016.5
20260905143519 72 37 2.0 4.0 0.00 0.00 0.00 64 1016.5
20260905143036 72 87 1.0 4.0 0.00 0.00 0.00 65 1016.5
20260905142520 72 29 2.0 4.0 0.00 0.00 0.00 63 1016.5
20260905142017 72 39 1.0 4.0 0.00 0.00 0.00 67 1016.5
20260905141537 71 31 2.0 4.0 0.00 0.00 0.00 64 1016.4
20260905141018 71 26 2.0 4.0 0.00 0.00 0.00 67 1016.4
20260905140518 71 28 1.0 4.0 0.00 0.00 0.00 68 1016.4
20260905140039 70 17 1.0 4.0 0.00 0.00 0.00 68 1016.5
20260905135516 70 39 1.0 3.0 0.00 0.00 0.00 68 1016.5
20260905135025 69 0 0.0 3.0 0.00 0.00 0.00 69 1016.5
20260905134538 69 0 0.0 5.0 0.00 0.00 0.00 73 1016.5
20260905134019 69 0 0.0 5.0 0.00 0.00 0.00 75 1016.5
20260905133519 68 60 1.0 5.0 0.00 0.00 0.00 74 1016.4
20260905133042 68 44 1.0 5.0 0.00 0.00 0.00 76 1016.4
20260905132517 67 42 1.0 4.0 0.00 0.00 0.00 78 1016.5
20260905132018 67 30 1.0 4.0 0.00 0.00 0.00 78 1016.6
20260905131541 66 32 1.0 4.0 0.00 0.00 0.00 79 1016.6
20260905131019 66 33 1.0 4.0 0.00 0.00 0.00 81 1016.5
20260905130517 65 21 1.0 2.0 0.00 0.00 0.00 83 1016.6
20260905130046 65 0 0.0 2.0 0.00 0.00 0.00 83 1016.6
20260905125522 65 0 0.0 3.0 0.00 0.00 0.00 84 1016.6
20260905125018 64 0 0.0 3.0 0.00 0.00 0.00 85 1016.7
20260905124539 64 0 0.0 0.0 0.00 0.00 0.00 86 1016.6
20260905124019 63 0 0.0 0.0 0.00 0.00 0.00 87 1016.6
20260905123518 63 0 0.0 0.0 0.00 0.00 0.00 86 1016.7
20260905123035 62 0 0.0 0.0 0.00 0.00 0.00 87 1016.7
20260905122516 62 0 0.0 0.0 0.00 0.00 0.00 88 1016.6
20260905122017 61 0 0.0 0.0 0.00 0.00 0.00 89 1016.6
20260905121537 61 0 0.0 0.0 0.00 0.00 0.00 89 1016.5
20260905121016 61 0 0.0 0.0 0.00 0.00 0.00 90 1016.7
20260905120517 61 0 0.0 0.0 0.00 0.00 0.00 91 1016.7
20260905120042 60 0 0.0 0.0 0.00 0.00 0.00 91 1016.6
20260905115519 60 0 0.0 0.0 0.00 0.00 0.00 91 1016.6
20260905115019 60 0 0.0 0.0 0.00 0.00 0.00 92 1016.7
20260905114535 60 0 0.0 0.0 0.00 0.00 0.00 91 1016.8
20260905114020 60 0 0.0 0.0 0.00 0.00 0.00 91 1016.7
20260905113517 60 0 0.0 0.0 0.00 0.00 0.00 91 1016.7
20260905113046 60 0 0.0 0.0 0.00 0.00 0.00 90 1016.7
20260905112518 60 0 0.0 0.0 0.00 0.00 0.00 90 1016.6
20260905112018 60 0 0.0 0.0 0.00 0.00 0.00 90 1016.5
20260905111558 60 0 0.0 0.0 0.00 0.00 0.00 90 1016.5
20260905111016 60 0 0.0 0.0 0.00 0.00 0.00 89 1016.6
20260905110518 60 0 0.0 0.0 0.00 0.00 0.00 89 1016.3
20260905110041 61 0 0.0 0.0 0.00 0.00 0.00 89 1016.3
20260905105517 61 0 0.0 0.0 0.00 0.00 0.00 89 1016.2
20260905105017 61 0 0.0 0.0 0.00 0.00 0.00 89 1016.2
20260905104538 61 0 0.0 0.0 0.00 0.00 0.00 88 1016.2
20260905104018 61 0 0.0 0.0 0.00 0.00 0.00 88 1016.2
20260905103519 61 0 0.0 0.0 0.00 0.00 0.00 88 1016.0
20260905103038 61 0 0.0 0.0 0.00 0.00 0.00 88 1016.0
20260905102521 62 0 0.0 0.0 0.00 0.00 0.00 88 1015.9
20260905102016 62 0 0.0 0.0 0.00 0.00 0.00 87 1015.7
20260905101547 62 0 0.0 0.0 0.00 0.00 0.00 87 1015.7
20260905101016 62 0 0.0 0.0 0.00 0.00 0.00 87 1015.7
20260905100515 62 0 0.0 0.0 0.00 0.00 0.00 87 1015.6
20260905100043 62 0 0.0 0.0 0.00 0.00 0.00 87 1015.7
20260905095521 63 0 0.0 0.0 0.00 0.00 0.00 87 1015.7
20260905095021 63 0 0.0 0.0 0.00 0.00 0.00 87 1015.8
20260905094536 63 0 0.0 0.0 0.00 0.00 0.00 87 1015.9
20260905094019 63 0 0.0 0.0 0.00 0.00 0.00 87 1015.7
20260905093518 63 0 0.0 0.0 0.00 0.00 0.00 86 1015.6
20260905093035 63 0 0.0 0.0 0.00 0.00 0.00 87 1015.4
20260905092518 63 0 0.0 0.0 0.00 0.00 0.00 87 1015.5
20260905092017 63 0 0.0 0.0 0.00 0.00 0.00 88 1015.5
20260905091534 63 0 0.0 0.0 0.00 0.00 0.00 88 1015.5
20260905091017 63 0 0.0 0.0 0.00 0.00 0.00 88 1015.6
20260905090517 64 0 0.0 0.0 0.00 0.00 0.00 89 1015.6
20260905090038 64 0 0.0 0.0 0.00 0.00 0.00 88 1015.9
20260905085518 64 0 0.0 0.0 0.00 0.00 0.00 88 1016.0
20260905085020 64 0 0.0 0.0 0.00 0.00 0.00 88 1016.0
20260905084547 64 0 0.0 0.0 0.00 0.00 0.00 88 1016.0
20260905084017 64 0 0.0 0.0 0.00 0.00 0.00 87 1015.9
20260905083519 64 0 0.0 0.0 0.00 0.00 0.00 87 1015.9
20260905083035 64 0 0.0 0.0 0.00 0.00 0.00 87 1015.7
20260905082518 64 0 0.0 0.0 0.00 0.00 0.00 87 1015.6
20260905082016 64 0 0.0 0.0 0.00 0.00 0.00 87 1015.7
20260905081535 64 0 0.0 0.0 0.00 0.00 0.00 87 1015.7
20260905081019 64 0 0.0 0.0 0.00 0.00 0.00 87 1015.6
20260905080517 64 0 0.0 0.0 0.00 0.00 0.00 87 1015.6
20260905080040 64 0 0.0 0.0 0.00 0.00 0.00 87 1015.5
20260905075520 64 0 0.0 0.0 0.00 0.00 0.00 87 1015.4
20260905075020 64 0 0.0 0.0 0.00 0.00 0.00 88 1015.4
20260905074542 64 0 0.0 0.0 0.00 0.00 0.00 88 1015.4
20260905074019 64 0 0.0 0.0 0.00 0.00 0.00 89 1015.2
20260905073519 64 0 0.0 0.0 0.00 0.00 0.00 89 1015.1
20260905073045 64 0 0.0 0.0 0.00 0.00 0.00 89 1015.2
20260905072518 64 0 0.0 0.0 0.00 0.00 0.00 89 1015.2
20260905072020 64 0 0.0 0.0 0.00 0.00 0.00 89 1015.2
20260905071536 64 0 0.0 0.0 0.00 0.00 0.00 89 1015.2
20260905071022 64 0 0.0 0.0 0.00 0.00 0.00 89 1015.2
20260905070518 64 0 0.0 0.0 0.00 0.00 0.00 89 1015.2
20260905070038 64 0 0.0 0.0 0.00 0.00 0.00 89 1015.3
20260905065523 64 0 0.0 0.0 0.00 0.00 0.00 90 1015.5
20260905065019 64 0 0.0 0.0 0.00 0.00 0.00 90 1015.5
20260905064534 64 0 0.0 0.0 0.00 0.00 0.00 90 1015.6
20260905064019 64 0 0.0 0.0 0.00 0.00 0.00 91 1015.5
20260905063518 64 0 0.0 0.0 0.00 0.00 0.00 91 1015.5
20260905063035 64 0 0.0 0.0 0.00 0.00 0.00 91 1015.5
20260905062521 64 0 0.0 0.0 0.00 0.00 0.00 91 1015.4
20260905062017 64 0 0.0 0.0 0.00 0.00 0.00 91 1015.5
20260905061537 64 0 0.0 0.0 0.00 0.00 0.00 91 1015.4
20260905061019 64 0 0.0 0.0 0.00 0.00 0.00 91 1015.4
20260905060519 64 0 0.0 0.0 0.00 0.00 0.00 91 1015.5
20260905060035 64 0 0.0 0.0 0.00 0.00 0.00 91 1015.5
20260905055520 64 0 0.0 0.0 0.00 0.00 0.00 91 1015.5
20260905055020 64 0 0.0 0.0 0.00 0.00 0.00 91 1015.4
20260905054537 64 0 0.0 0.0 0.00 0.00 0.00 91 1015.5
20260905054019 64 0 0.0 0.0 0.00 0.00 0.00 90 1015.7
20260905053517 64 0 0.0 0.0 0.00 0.00 0.00 90 1015.6
20260905053033 64 0 0.0 0.0 0.00 0.00 0.00 90 1015.6
20260905052519 64 0 0.0 0.0 0.00 0.00 0.00 90 1015.7
20260905052022 64 0 0.0 0.0 0.00 0.00 0.00 90 1015.7
20260905051542 64 0 0.0 0.0 0.00 0.00 0.00 90 1015.6
20260905051017 64 0 0.0 0.0 0.00 0.00 0.00 90 1015.7
20260905050516 64 0 0.0 0.0 0.00 0.00 0.00 90 1015.7
20260905050036 64 0 0.0 0.0 0.00 0.00 0.00 90 1015.7
20260905045517 65 0 0.0 0.0 0.00 0.00 0.00 90 1015.8
20260905045022 65 0 0.0 0.0 0.00 0.00 0.00 90 1015.8
20260905044537 65 0 0.0 0.0 0.00 0.00 0.00 90 1015.8
20260905044019 65 0 0.0 0.0 0.00 0.00 0.00 90 1015.8
20260905043517 65 0 0.0 0.0 0.00 0.00 0.00 90 1015.8
20260905043042 65 0 0.0 0.0 0.00 0.00 0.00 90 1015.9
20260905042520 65 0 0.0 0.0 0.00 0.00 0.00 90 1015.7
20260905042018 65 0 0.0 0.0 0.00 0.00 0.00 90 1015.8
20260905041537 65 0 0.0 0.0 0.00 0.00 0.00 90 1015.9
20260905041016 65 0 0.0 0.0 0.00 0.00 0.00 91 1015.8
20260905040517 66 0 0.0 0.0 0.00 0.00 0.00 91 1015.8
20260905040035 66 0 0.0 0.0 0.00 0.00 0.00 91 1015.9
20260905035519 66 0 0.0 0.0 0.00 0.00 0.00 91 1016.0
20260905035022 66 0 0.0 0.0 0.00 0.00 0.00 91 1015.9
20260905034534 66 0 0.0 0.0 0.00 0.00 0.00 91 1015.9
20260905034016 66 0 0.0 0.0 0.00 0.00 0.00 91 1016.0
20260905033519 66 0 0.0 0.0 0.00 0.00 0.00 91 1016.0
20260905033104 66 0 0.0 0.0 0.00 0.00 0.00 91 1016.1
20260905032518 66 0 0.0 0.0 0.00 0.00 0.00 91 1016.0
20260905032016 66 0 0.0 0.0 0.00 0.00 0.00 91 1016.0
20260905031545 66 0 0.0 0.0 0.00 0.00 0.00 91 1015.9
20260905031016 66 0 0.0 0.0 0.00 0.00 0.00 92 1016.0
20260905030517 66 0 0.0 0.0 0.00 0.00 0.00 92 1016.1
20260905030050 66 0 0.0 0.0 0.00 0.00 0.00 92 1016.3
20260905025517 66 0 0.0 0.0 0.00 0.00 0.00 91 1016.2
20260905025036 66 0 0.0 0.0 0.00 0.00 0.00 91 1016.2
20260905024536 66 0 0.0 0.0 0.00 0.00 0.00 91 1016.2
20260905024019 66 0 0.0 0.0 0.00 0.00 0.00 91 1016.3
20260905023516 66 0 0.0 0.0 0.00 0.00 0.00 91 1016.3
20260905023049 67 0 0.0 0.0 0.00 0.00 0.00 91 1016.4
20260905022519 67 0 0.0 0.0 0.00 0.00 0.00 91 1016.4
20260905022022 67 0 0.0 0.0 0.00 0.00 0.00 91 1016.3
20260905021541 67 0 0.0 0.0 0.00 0.00 0.00 91 1016.2
20260905021020 67 0 0.0 0.0 0.00 0.00 0.00 91 1016.2
20260905020520 67 0 0.0 0.0 0.00 0.00 0.00 90 1016.1
20260905020039 67 0 0.0 0.0 0.00 0.00 0.00 91 1016.3
20260905015519 67 0 0.0 0.0 0.00 0.00 0.00 90 1016.2
20260905015017 67 0 0.0 0.0 0.00 0.00 0.00 90 1016.1
20260905014535 67 0 0.0 0.0 0.00 0.00 0.00 90 1016.1
20260905014018 67 0 0.0 0.0 0.00 0.00 0.00 91 1016.1
20260905013518 67 0 0.0 0.0 0.00 0.00 0.00 91 1016.1
20260905013042 66 0 0.0 0.0 0.00 0.00 0.00 91 1016.0
20260905012518 66 0 0.0 0.0 0.00 0.00 0.00 91 1016.0
20260905012017 66 0 0.0 0.0 0.00 0.00 0.00 90 1016.1
20260905011541 66 0 0.0 0.0 0.00 0.00 0.00 90 1016.0
20260905011020 66 0 0.0 0.0 0.00 0.00 0.00 90 1016.0
20260905010520 67 0 0.0 0.0 0.00 0.00 0.00 89 1015.8
20260905010041 67 0 0.0 0.0 0.00 0.00 0.00 88 1015.8
20260905005517 67 0 0.0 0.0 0.00 0.00 0.00 88 1015.7
20260905005021 67 0 0.0 0.0 0.00 0.00 0.00 88 1015.7
20260905004538 67 0 0.0 0.0 0.00 0.00 0.00 87 1015.6
20260905004017 67 0 0.0 0.0 0.00 0.00 0.00 87 1015.6
20260905003517 67 0 0.0 0.0 0.00 0.00 0.00 87 1015.5
20260905003037 67 0 0.0 0.0 0.00 0.00 0.00 87 1015.6
20260905002517 68 0 0.0 0.0 0.00 0.00 0.00 87 1015.6
20260905002016 68 0 0.0 0.0 0.00 0.00 0.00 87 1015.6
20260905001543 68 0 0.0 0.0 0.00 0.00 0.00 86 1015.5
20260905001021 69 0 0.0 0.0 0.00 0.00 0.00 86 1015.4
20260905000518 69 0 0.0 0.0 0.00 0.00 0.00 86 1015.5
20260905000038 69 0 0.0 0.0 0.00 0.00 0.00 86 1015.6
20260904235518 69 0 0.0 0.0 0.00 0.00 0.00 84 1015.7
20260904235019 69 0 0.0 0.0 0.00 0.00 0.00 83 1015.7
20260904234556 69 0 0.0 0.0 0.00 0.00 0.00 84 1015.7
20260904234019 70 0 0.0 0.0 0.00 0.00 0.00 84 1015.7
20260904233517 70 0 0.0 0.0 0.00 0.00 0.00 84 1015.6
20260904233041 70 0 0.0 0.0 0.00 0.00 0.00 82 1015.8
20260904232518 70 0 0.0 0.0 0.00 0.00 0.00 82 1015.7
20260904232016 70 0 0.0 0.0 0.00 0.00 0.00 82 1015.7
20260904231540 70 0 0.0 0.0 0.00 0.00 0.00 83 1015.6
20260904231017 70 0 0.0 0.0 0.00 0.00 0.00 82 1015.5
20260904230518 70 0 0.0 0.0 0.00 0.00 0.00 82 1015.5
20260904230100 70 0 0.0 0.0 0.00 0.00 0.00 81 1015.4
20260904225518 70 0 0.0 0.0 0.00 0.00 0.00 83 1015.3
20260904225018 71 0 0.0 0.0 0.00 0.00 0.00 83 1015.4
20260904224535 71 0 0.0 0.0 0.00 0.00 0.00 82 1015.3
20260904224018 71 0 0.0 0.0 0.00 0.00 0.00 84 1015.2
20260904223518 71 0 0.0 0.0 0.00 0.00 0.00 83 1015.3
20260904223040 71 0 0.0 0.0 0.00 0.00 0.00 82 1015.2
20260904222519 71 0 0.0 0.0 0.00 0.00 0.00 81 1015.2
20260904222016 71 0 0.0 0.0 0.00 0.00 0.00 82 1015.1
20260904221539 71 0 0.0 0.0 0.00 0.00 0.00 82 1015.0
20260904221018 71 0 0.0 0.0 0.00 0.00 0.00 82 1015.0
20260904220516 71 0 0.0 0.0 0.00 0.00 0.00 82 1014.9
20260904220038 71 0 0.0 0.0 0.00 0.00 0.00 81 1014.9
20260904215520 72 0 0.0 0.0 0.00 0.18 0.00 82 1014.8
20260904215017 72 0 0.0 0.0 0.00 0.18 0.00 81 1014.7
20260904214536 72 0 0.0 0.0 0.00 0.18 0.00 81 1014.6
20260904214018 72 0 0.0 0.0 0.00 0.18 0.00 81 1014.6
20260904213518 72 0 0.0 3.0 0.00 0.18 0.00 82 1014.5
20260904213034 72 0 1.0 3.0 0.00 0.18 0.00 80 1014.5
20260904212516 72 1 1.0 3.0 0.00 0.18 0.00 81 1014.5
20260904212020 72 40 1.0 3.0 0.00 0.18 0.00 82 1014.4
20260904211534 72 0 0.0 3.0 0.00 0.18 0.00 83 1014.3
20260904211015 72 0 0.0 3.0 0.00 0.18 0.00 82 1014.5
20260904210517 72 0 1.0 3.0 0.00 0.18 0.00 82 1014.4
20260904210035 72 31 1.0 3.0 0.00 0.18 0.00 83 1014.6
20260904205520 72 0 0.0 0.0 0.00 0.33 0.00 83 1014.6
20260904205018 72 0 0.0 2.0 0.00 0.33 0.00 82 1014.6
20260904204538 72 0 0.0 2.0 0.00 0.33 0.00 82 1014.7
20260904204017 72 0 0.0 2.0 0.00 0.33 0.00 82 1014.6
20260904203518 73 0 0.0 2.0 0.00 0.33 0.00 82 1014.6
20260904203038 73 0 0.0 3.0 0.00 0.33 0.00 82 1014.7
20260904202519 73 43 0.0 3.0 0.00 0.33 0.00 82 1014.5
20260904202017 73 14 0.0 2.0 0.00 0.33 0.00 81 1014.4
20260904201533 73 0 0.0 0.0 0.00 0.33 0.00 82 1014.6
20260904201017 74 0 0.0 2.0 0.00 0.33 0.00 82 1014.7
20260904200516 74 0 0.0 2.0 0.00 0.33 0.00 81 1014.6
20260904200050 74 0 0.0 2.0 0.00 0.33 0.00 81 1014.7
20260904195521 74 0 0.0 2.0 0.00 0.33 0.00 82 1014.8
20260904195020 74 18 0.0 2.0 0.00 0.33 0.00 82 1014.8
20260904194537 74 0 0.0 1.0 0.00 0.33 0.00 83 1014.6
20260904194019 74 0 0.0 2.0 0.00 0.33 0.00 83 1014.7
20260904193519 74 0 0.0 2.0 0.00 0.33 0.00 83 1014.9
20260904193038 74 0 0.0 1.0 0.00 0.33 0.00 84 1015.1
20260904192516 74 0 0.0 1.0 0.00 0.33 0.00 82 1015.1
20260904192016 74 0 0.0 1.0 0.00 0.33 0.00 83 1015.2
20260904191540 74 0 0.0 1.0 0.00 0.33 0.00 84 1015.2
20260904191016 74 0 0.0 1.0 0.00 0.33 0.00 83 1015.2
20260904190520 73 0 0.0 0.0 0.00 0.33 0.00 84 1015.1
20260904190036 73 0 0.0 0.0 0.00 0.33 0.00 85 1015.2
20260904185519 73 0 0.0 0.0 0.00 0.33 0.00 84 1015.2
20260904185017 73 0 0.0 0.0 0.00 0.33 0.00 85 1015.3
20260904184537 73 0 0.0 0.0 0.00 0.33 0.00 85 1015.3
20260904184019 73 0 0.0 0.0 0.00 0.33 0.00 84 1015.3
20260904183518 73 0 0.0 0.0 0.00 0.33 0.00 86 1015.3
20260904183050 72 0 0.0 0.0 0.00 0.33 0.00 85 1015.6
20260904182517 72 0 0.0 0.0 0.00 0.33 0.00 85 1015.6
20260904182023 72 0 0.0 0.0 0.00 0.33 0.00 85 1015.6
20260904181540 72 0 0.0 0.0 0.00 0.33 0.00 85 1015.7
20260904181016 72 0 0.0 0.0 0.00 0.33 0.00 85 1015.7
20260904180518 72 0 0.0 0.0 0.00 0.33 0.00 86 1015.7
20260904180036 72 0 0.0 0.0 0.00 0.33 0.00 88 1015.8
20260904175520 72 0 0.0 0.0 0.00 0.33 0.00 86 1015.8
20260904175019 72 0 0.0 0.0 0.00 0.33 0.00 87 1015.9
20260904174534 71 0 0.0 0.0 0.00 0.33 0.00 87 1015.9
20260904174017 71 0 0.0 0.0 0.00 0.33 0.00 88 1015.8
20260904173518 71 0 0.0 0.0 0.00 0.33 0.00 88 1016.0
20260904173035 71 0 0.0 0.0 0.00 0.33 0.00 87 1016.0
20260904172516 71 0 0.0 0.0 0.00 0.33 0.00 87 1015.9
20260904172017 71 0 0.0 0.0 0.00 0.33 0.00 88 1016.1
20260904171545 70 0 0.0 0.0 0.00 0.33 0.00 89 1016.2
20260904171020 70 0 0.0 0.0 0.00 0.33 0.00 89 1016.4
20260904170519 70 0 0.0 0.0 0.00 0.33 0.00 90 1016.4